Time,TemperatureF,DewpointF,PressureIn,WindDirection,WindDirectionDegrees,WindSpeedMPH,WindSpeedGustMPH,Humidity,HourlyPrecipIn,Conditions,Clouds,dailyrainin,SoftwareType,DateUTC
2013-03-19 00:02:00,34.0,15.0,29.96,SE,129,7.0,9.0,45,0.00,,,0.00,,2013-03-19 07:02:00,
2013-03-19 00:11:00,34.0,15.0,29.96,SE,129,7.0,9.0,45,0.00,,,0.00,,2013-03-19 07:11:00,
2013-03-19 00:21:00,34.0,15.0,29.96,SE,129,7.0,9.0,45,0.00,,,0.00,,2013-03-19 07:21:00,
2013-03-19 00:32:00,34.0,15.0,29.96,SE,129,7.0,9.0,45,0.00,,,0.00,,2013-03-19 07:32:00,
2013-03-19 00:42:00,34.0,15.0,29.96,SE,129,7.0,9.0,45,0.00,,,0.00,,2013-03-19 07:42:00,
2013-03-19 00:52:00,33.0,15.0,29.96,SE,136,7.0,8.0,46,0.00,,,0.00,,2013-03-19 07:52:00,
2013-03-19 01:02:00,33.0,15.0,29.96,SE,134,5.0,6.0,46,0.00,,,0.00,,2013-03-19 08:02:00,
2013-03-19 01:12:00,33.0,15.0,29.96,SE,134,5.0,6.0,46,0.00,,,0.00,,2013-03-19 08:12:00,
2013-03-19 01:21:00,33.0,15.0,29.96,SE,134,5.0,6.0,46,0.00,,,0.00,,2013-03-19 08:21:00,
2013-03-19 01:32:00,34.0,16.0,29.96,SSE,158,6.0,8.0,47,0.00,,,0.00,,2013-03-19 08:32:00,
2013-03-19 01:42:00,34.0,16.0,29.96,SSE,158,6.0,8.0,47,0.00,,,0.00,,2013-03-19 08:42:00,
2013-03-19 01:52:00,34.0,16.0,29.96,SSE,158,6.0,8.0,47,0.00,,,0.00,,2013-03-19 08:52:00,
2013-03-19 02:02:00,34.0,15.0,29.96,ESE,112,6.0,7.0,46,0.00,,,0.00,,2013-03-19 09:02:00,
2013-03-19 02:12:00,34.0,15.0,29.96,ESE,112,6.0,7.0,46,0.00,,,0.00,,2013-03-19 09:12:00,
2013-03-19 02:22:00,33.0,15.0,29.96,SSE,158,2.0,5.0,46,0.00,,,0.00,,2013-03-19 09:22:00,
2013-03-19 02:32:00,33.0,15.0,29.96,SE,129,3.0,5.0,46,0.00,,,0.00,,2013-03-19 09:32:00,
2013-03-19 02:42:00,33.0,15.0,29.96,SE,129,3.0,5.0,46,0.00,,,0.00,,2013-03-19 09:42:00,
2013-03-19 02:52:00,32.0,14.0,29.96,East,96,2.0,3.0,46,0.00,,,0.00,,2013-03-19 09:52:00,
2013-03-19 03:03:00,31.0,13.0,29.96,ESE,118,2.0,3.0,46,0.00,,,0.00,,2013-03-19 10:03:00,
2013-03-19 03:12:00,31.0,13.0,29.96,ESE,118,2.0,3.0,46,0.00,,,0.00,,2013-03-19 10:12:00,
2013-03-19 03:22:00,31.0,13.0,29.96,ESE,104,2.0,3.0,46,0.00,,,0.00,,2013-03-19 10:22:00,
2013-03-19 03:32:00,31.0,13.0,29.96,East,90,2.0,3.0,47,0.00,,,0.00,,2013-03-19 10:32:00,
2013-03-19 03:42:00,31.0,13.0,29.96,East,90,2.0,3.0,47,0.00,,,0.00,,2013-03-19 10:42:00,
2013-03-19 03:52:00,30.0,12.0,29.93,ESE,112,2.0,3.0,47,0.00,,,0.00,,2013-03-19 10:52:00,
2013-03-19 04:02:00,30.0,13.0,29.93,ESE,112,2.0,3.0,48,0.00,,,0.00,,2013-03-19 11:02:00,
2013-03-19 04:11:00,30.0,13.0,29.93,ESE,112,2.0,3.0,48,0.00,,,0.00,,2013-03-19 11:11:00,
2013-03-19 04:22:00,30.0,13.0,29.93,ESE,112,2.0,3.0,48,0.00,,,0.00,,2013-03-19 11:22:00,
2013-03-19 04:32:00,30.0,14.0,29.93,ESE,117,4.0,6.0,50,0.00,,,0.00,,2013-03-19 11:32:00,
2013-03-19 04:43:00,30.0,14.0,29.93,ESE,117,4.0,6.0,50,0.00,,,0.00,,2013-03-19 11:43:00,
2013-03-19 04:52:00,30.0,14.0,29.93,SE,125,3.0,5.0,50,0.00,,,0.00,,2013-03-19 11:52:00,
2013-03-19 05:02:00,30.0,14.0,29.93,SSE,158,3.0,5.0,51,0.00,,,0.00,,2013-03-19 12:02:00,
2013-03-19 05:12:00,30.0,14.0,29.93,SSE,158,3.0,5.0,51,0.00,,,0.00,,2013-03-19 12:12:00,
2013-03-19 05:22:00,30.0,14.0,29.93,SSE,158,3.0,5.0,51,0.00,,,0.00,,2013-03-19 12:22:00,
2013-03-19 05:32:00,31.0,15.0,29.93,SE,146,6.0,7.0,50,0.00,,,0.00,,2013-03-19 12:32:00,
2013-03-19 05:43:00,31.0,15.0,29.93,SE,146,6.0,7.0,50,0.00,,,0.00,,2013-03-19 12:43:00,
2013-03-19 05:52:00,31.0,15.0,29.93,ESE,122,5.0,7.0,50,0.00,,,0.00,,2013-03-19 12:52:00,
2013-03-19 06:02:00,32.0,15.0,29.93,SE,126,5.0,6.0,50,0.00,,,0.00,,2013-03-19 13:02:00,
2013-03-19 06:11:00,32.0,15.0,29.93,SE,126,5.0,6.0,50,0.00,,,0.00,,2013-03-19 13:11:00,
2013-03-19 06:22:00,32.0,15.0,29.93,SE,126,5.0,6.0,50,0.00,,,0.00,,2013-03-19 13:22:00,
2013-03-19 06:32:00,32.0,15.0,29.93,SE,127,3.0,5.0,49,0.00,,,0.00,,2013-03-19 13:32:00,
2013-03-19 06:42:00,32.0,15.0,29.93,SE,127,3.0,5.0,49,0.00,,,0.00,,2013-03-19 13:42:00,
2013-03-19 06:52:00,32.0,15.0,29.93,SSE,158,1.0,3.0,49,0.00,,,0.00,,2013-03-19 13:52:00,
2013-03-19 07:02:00,32.0,15.0,29.93,SE,135,2.0,2.0,49,0.00,,,0.00,,2013-03-19 14:02:00,
2013-03-19 07:11:00,32.0,15.0,29.93,SE,135,2.0,2.0,49,0.00,,,0.00,,2013-03-19 14:11:00,
2013-03-19 07:22:00,32.0,15.0,29.93,SE,135,2.0,2.0,50,0.00,,,0.00,,2013-03-19 14:22:00,
2013-03-19 07:32:00,32.0,15.0,29.93,SE,135,2.0,2.0,50,0.00,,,0.00,,2013-03-19 14:32:00,
2013-03-19 07:41:00,32.0,15.0,29.93,SE,135,2.0,2.0,50,0.00,,,0.00,,2013-03-19 14:41:00,
2013-03-19 07:51:00,32.0,15.0,29.93,SE,135,1.0,2.0,50,0.00,,,0.00,,2013-03-19 14:51:00,
2013-03-19 08:02:00,32.0,15.0,29.93,SE,135,2.0,2.0,50,0.00,,,0.00,,2013-03-19 15:02:00,
2013-03-19 08:12:00,32.0,15.0,29.93,SE,135,2.0,2.0,50,0.00,,,0.00,,2013-03-19 15:12:00,
2013-03-19 08:22:00,32.0,15.0,29.93,SE,135,2.0,2.0,50,0.00,,,0.00,,2013-03-19 15:22:00,
2013-03-19 08:33:00,34.0,17.0,29.93,North,0,1.0,2.0,50,0.00,,,0.00,,2013-03-19 15:33:00,
2013-03-19 08:44:00,34.0,17.0,29.93,North,0,1.0,2.0,50,0.00,,,0.00,,2013-03-19 15:44:00,
2013-03-19 08:53:00,34.0,17.0,29.93,North,0,0.0,2.0,50,0.00,,,0.00,,2013-03-19 15:53:00,
2013-03-19 09:03:00,35.0,18.0,29.93,NNW,338,0.0,1.0,50,0.00,,,0.00,,2013-03-19 16:03:00,
2013-03-19 09:12:00,35.0,18.0,29.93,NNW,338,0.0,1.0,50,0.00,,,0.00,,2013-03-19 16:12:00,
2013-03-19 09:23:00,35.0,18.0,29.93,NNW,338,0.0,1.0,50,0.00,,,0.00,,2013-03-19 16:23:00,
2013-03-19 09:33:00,36.0,18.0,29.93,ENE,68,2.0,3.0,47,0.00,,,0.00,,2013-03-19 16:33:00,
2013-03-19 09:43:00,36.0,18.0,29.93,ENE,68,2.0,3.0,47,0.00,,,0.00,,2013-03-19 16:43:00,
2013-03-19 09:54:00,37.0,18.0,29.93,NNW,338,2.0,2.0,46,0.00,,,0.00,,2013-03-19 16:54:00,
2013-03-19 10:02:00,38.0,19.0,29.93,NW,307,3.0,6.0,46,0.00,,,0.00,,2013-03-19 17:02:00,
2013-03-19 10:13:00,38.0,19.0,29.93,NW,307,3.0,6.0,46,0.00,,,0.00,,2013-03-19 17:13:00,
2013-03-19 10:23:00,39.0,20.0,29.93,NW,320,3.0,6.0,47,0.00,,,0.00,,2013-03-19 17:23:00,
2013-03-19 10:34:00,39.0,20.0,29.93,NW,306,3.0,6.0,46,0.00,,,0.00,,2013-03-19 17:34:00,
2013-03-19 10:43:00,39.0,20.0,29.93,NW,306,3.0,6.0,46,0.00,,,0.00,,2013-03-19 17:43:00,
2013-03-19 10:52:00,40.0,21.0,29.93,WNW,292,2.0,3.0,46,0.00,,,0.00,,2013-03-19 17:52:00,
2013-03-19 11:02:00,41.0,21.0,29.93,NNW,343,3.0,5.0,44,0.00,,,0.00,,2013-03-19 18:02:00,
2013-03-19 11:13:00,41.0,21.0,29.93,NNW,343,3.0,5.0,44,0.00,,,0.00,,2013-03-19 18:13:00,
2013-03-19 11:22:00,41.0,21.0,29.93,NNW,343,3.0,5.0,44,0.00,,,0.00,,2013-03-19 18:22:00,
2013-03-19 11:33:00,43.0,22.0,29.90,East,87,2.0,5.0,43,0.00,,,0.00,,2013-03-19 18:33:00,
2013-03-19 11:42:00,43.0,22.0,29.90,East,87,2.0,5.0,43,0.00,,,0.00,,2013-03-19 18:42:00,
2013-03-19 11:53:00,43.0,22.0,29.90,ENE,73,3.0,5.0,43,0.00,,,0.00,,2013-03-19 18:53:00,
2013-03-19 12:02:00,45.0,23.0,29.90,ENE,77,2.0,6.0,41,0.00,,,0.00,,2013-03-19 19:02:00,
2013-03-19 12:12:00,45.0,23.0,29.90,ENE,77,2.0,6.0,41,0.00,,,0.00,,2013-03-19 19:12:00,
2013-03-19 12:22:00,45.0,23.0,29.90,ENE,59,2.0,5.0,41,0.00,,,0.00,,2013-03-19 19:22:00,
2013-03-19 12:32:00,46.0,23.0,29.90,NW,325,1.0,6.0,40,0.00,,,0.00,,2013-03-19 19:32:00,
2013-03-19 12:42:00,46.0,23.0,29.90,NW,325,1.0,6.0,40,0.00,,,0.00,,2013-03-19 19:42:00,
2013-03-19 12:52:00,46.0,23.0,29.90,North,7,2.0,3.0,40,0.00,,,0.00,,2013-03-19 19:52:00,
2013-03-19 13:02:00,47.0,23.0,29.87,NNW,338,2.0,3.0,39,0.00,,,0.00,,2013-03-19 20:02:00,
2013-03-19 13:11:00,47.0,23.0,29.87,NNW,338,2.0,3.0,39,0.00,,,0.00,,2013-03-19 20:11:00,
2013-03-19 13:22:00,47.0,23.0,29.87,NNW,338,2.0,3.0,39,0.00,,,0.00,,2013-03-19 20:22:00,
2013-03-19 13:32:00,49.0,25.0,29.87,North,359,2.0,5.0,38,0.00,,,0.00,,2013-03-19 20:32:00,
2013-03-19 13:43:00,49.0,25.0,29.87,North,359,2.0,5.0,38,0.00,,,0.00,,2013-03-19 20:43:00,
2013-03-19 13:52:00,49.0,25.0,29.87,North,3,2.0,6.0,38,0.00,,,0.00,,2013-03-19 20:52:00,
2013-03-19 14:02:00,50.0,25.0,29.87,NW,321,5.0,7.0,38,0.00,,,0.00,,2013-03-19 21:02:00,
2013-03-19 14:11:00,50.0,25.0,29.87,NW,321,5.0,7.0,38,0.00,,,0.00,,2013-03-19 21:11:00,
2013-03-19 14:22:00,50.0,25.0,29.87,NW,321,5.0,7.0,38,0.00,,,0.00,,2013-03-19 21:22:00,
2013-03-19 14:33:00,48.0,23.0,29.84,WNW,301,5.0,8.0,37,0.00,,,0.00,,2013-03-19 21:33:00,
2013-03-19 14:42:00,48.0,23.0,29.84,WNW,301,5.0,8.0,37,0.00,,,0.00,,2013-03-19 21:42:00,
2013-03-19 14:53:00,48.0,23.0,29.84,WNW,301,5.0,8.0,37,0.00,,,0.00,,2013-03-19 21:53:00,
2013-03-19 15:02:00,48.0,24.0,29.84,NW,313,5.0,7.0,38,0.00,,,0.00,,2013-03-19 22:02:00,
2013-03-19 15:12:00,48.0,24.0,29.84,NW,313,5.0,7.0,38,0.00,,,0.00,,2013-03-19 22:12:00,
2013-03-19 15:23:00,48.0,24.0,29.81,NW,309,6.0,8.0,38,0.00,,,0.00,,2013-03-19 22:23:00,
2013-03-19 15:33:00,48.0,24.0,29.81,NW,326,3.0,6.0,38,0.00,,,0.00,,2013-03-19 22:33:00,
2013-03-19 15:52:00,48.0,24.0,29.81,NNW,333,3.0,6.0,38,0.00,,,0.00,,2013-03-19 22:52:00,
2013-03-19 16:02:00,48.0,24.0,29.81,NNW,341,5.0,7.0,38,0.00,,,0.00,,2013-03-19 23:02:00,
2013-03-19 16:12:00,48.0,24.0,29.81,NNW,341,5.0,7.0,38,0.00,,,0.00,,2013-03-19 23:12:00,
2013-03-19 16:21:00,48.0,23.0,29.78,NW,315,3.0,6.0,37,0.00,,,0.00,,2013-03-19 23:21:00,
2013-03-19 16:32:00,48.0,24.0,29.78,NW,316,6.0,7.0,38,0.00,,,0.00,,2013-03-19 23:32:00,
2013-03-19 16:42:00,48.0,24.0,29.78,NW,316,6.0,7.0,38,0.00,,,0.00,,2013-03-19 23:42:00,
2013-03-19 16:51:00,48.0,24.0,29.78,WNW,301,6.0,8.0,38,0.00,,,0.00,,2013-03-19 23:51:00,
2013-03-19 17:02:00,47.0,23.0,29.78,WNW,298,5.0,8.0,38,0.00,,,0.00,,2013-03-20 00:02:00,
2013-03-19 17:12:00,47.0,23.0,29.78,WNW,298,5.0,8.0,38,0.00,,,0.00,,2013-03-20 00:12:00,
2013-03-19 17:22:00,47.0,23.0,29.78,WNW,298,5.0,8.0,38,0.00,,,0.00,,2013-03-20 00:22:00,
2013-03-19 17:32:00,45.0,22.0,29.75,NNW,338,3.0,6.0,39,0.00,,,0.00,,2013-03-20 00:32:00,
2013-03-19 17:42:00,45.0,22.0,29.75,NNW,338,3.0,6.0,39,0.00,,,0.00,,2013-03-20 00:42:00,
2013-03-19 17:52:00,45.0,22.0,29.75,NNW,338,3.0,6.0,39,0.00,,,0.00,,2013-03-20 00:52:00,
2013-03-19 18:02:00,45.0,22.0,29.72,NW,311,5.0,7.0,40,0.00,,,0.00,,2013-03-20 01:02:00,
2013-03-19 18:12:00,45.0,22.0,29.72,NW,311,5.0,7.0,40,0.00,,,0.00,,2013-03-20 01:12:00,
2013-03-19 18:22:00,45.0,22.0,29.72,WNW,292,3.0,6.0,40,0.00,,,0.00,,2013-03-20 01:22:00,
2013-03-19 18:32:00,44.0,22.0,29.72,WNW,283,3.0,6.0,41,0.00,,,0.00,,2013-03-20 01:32:00,
2013-03-19 18:42:00,44.0,22.0,29.72,WNW,283,3.0,6.0,41,0.00,,,0.00,,2013-03-20 01:42:00,
2013-03-19 18:52:00,44.0,22.0,29.72,WSW,248,2.0,3.0,42,0.00,,,0.00,,2013-03-20 01:52:00,
2013-03-19 19:02:00,44.0,22.0,29.72,West,279,5.0,7.0,42,0.00,,,0.00,,2013-03-20 02:02:00,
2013-03-19 19:11:00,44.0,22.0,29.72,West,279,5.0,7.0,42,0.00,,,0.00,,2013-03-20 02:11:00,
2013-03-19 19:21:00,43.0,22.0,29.72,SSW,197,6.0,10.0,42,0.00,,,0.00,,2013-03-20 02:21:00,
2013-03-19 19:32:00,41.0,23.0,29.72,SW,229,3.0,6.0,48,0.01,,,0.01,,2013-03-20 02:32:00,
2013-03-19 19:42:00,41.0,23.0,29.72,SW,229,3.0,6.0,48,0.01,,,0.01,,2013-03-20 02:42:00,
2013-03-19 19:52:00,41.0,23.0,29.72,SW,229,3.0,6.0,48,0.01,,,0.01,,2013-03-20 02:52:00,
2013-03-19 20:11:00,40.0,24.0,29.70,NNE,13,2.0,3.0,53,0.01,,,0.01,,2013-03-20 03:11:00,
2013-03-19 20:22:00,40.0,24.0,29.70,NNE,13,2.0,3.0,53,0.01,,,0.01,,2013-03-20 03:22:00,
2013-03-19 20:33:00,40.0,25.0,29.70,NNE,28,0.0,0.0,54,0.00,,,0.01,,2013-03-20 03:33:00,
2013-03-19 20:42:00,40.0,25.0,29.70,NNE,28,0.0,0.0,54,0.00,,,0.01,,2013-03-20 03:42:00,
2013-03-19 20:52:00,40.0,25.0,29.70,WNW,292,2.0,2.0,54,0.00,,,0.01,,2013-03-20 03:52:00,
2013-03-19 21:02:00,40.0,25.0,29.70,WSW,248,2.0,3.0,54,0.03,,,0.04,,2013-03-20 04:02:00,
2013-03-19 21:12:00,40.0,25.0,29.70,WSW,248,2.0,3.0,54,0.03,,,0.04,,2013-03-20 04:12:00,
2013-03-19 21:22:00,40.0,26.0,29.70,WSW,248,1.0,3.0,57,0.03,,,0.04,,2013-03-20 04:22:00,
2013-03-19 21:32:00,39.0,25.0,29.70,East,101,2.0,3.0,56,0.03,,,0.04,,2013-03-20 04:32:00,
2013-03-19 21:42:00,39.0,25.0,29.70,East,101,2.0,3.0,56,0.03,,,0.04,,2013-03-20 04:42:00,
2013-03-19 21:52:00,39.0,26.0,29.67,SSE,158,2.0,3.0,60,0.03,,,0.04,,2013-03-20 04:52:00,
2013-03-19 22:02:00,38.0,25.0,29.67,ENE,68,2.0,2.0,60,0.00,,,0.04,,2013-03-20 05:02:00,
2013-03-19 22:12:00,38.0,25.0,29.67,SE,126,0.0,2.0,60,0.00,,,0.04,,2013-03-20 05:12:00,
2013-03-19 22:22:00,38.0,25.0,29.67,SE,126,0.0,2.0,60,0.00,,,0.04,,2013-03-20 05:22:00,
2013-03-19 22:32:00,39.0,27.0,29.67,WSW,248,1.0,2.0,61,0.00,,,0.04,,2013-03-20 05:32:00,
2013-03-19 22:42:00,39.0,27.0,29.67,WSW,248,1.0,2.0,61,0.00,,,0.04,,2013-03-20 05:42:00,
2013-03-19 22:52:00,39.0,27.0,29.67,WSW,248,1.0,2.0,61,0.00,,,0.04,,2013-03-20 05:52:00,
2013-03-19 23:02:00,39.0,27.0,29.64,ESE,107,3.0,3.0,61,0.01,,,0.05,,2013-03-20 06:02:00,
2013-03-19 23:12:00,39.0,27.0,29.64,ESE,107,3.0,3.0,61,0.01,,,0.05,,2013-03-20 06:12:00,
2013-03-19 23:22:00,39.0,28.0,29.64,NNW,338,2.0,3.0,65,0.02,,,0.06,,2013-03-20 06:22:00,
2013-03-19 23:32:00,39.0,28.0,29.64,NNW,338,0.0,2.0,64,0.02,,,0.06,,2013-03-20 06:32:00,
2013-03-19 23:42:00,39.0,28.0,29.64,NNW,338,0.0,2.0,64,0.02,,,0.06,,2013-03-20 06:42:00,
2013-03-19 23:52:00,39.0,28.0,29.64,WNW,292,3.0,5.0,64,0.01,,,0.06,,2013-03-20 06:52:00,